TimeCDT,TemperatureF,Dew PointF,Humidity,Sea Level PressureIn,VisibilityMPH,Wind Direction,Wind SpeedMPH,Gust SpeedMPH,PrecipitationIn,Events,Conditions,WindDirDegrees,DateUTC
12:53 AM,60.1,55.0,83,29.91,10.0,NNE,3.5,-,N/A,,Clear,30,2013-09-24 05:53:00
1:53 AM,57.9,54.0,87,29.92,10.0,Calm,Calm,-,N/A,,Clear,0,2013-09-24 06:53:00
2:53 AM,59.0,55.0,87,29.91,10.0,Calm,Calm,-,N/A,,Partly Cloudy,0,2013-09-24 07:53:00
3:53 AM,59.0,55.0,87,29.91,10.0,Calm,Calm,-,N/A,,Mostly Cloudy,0,2013-09-24 08:53:00
4:53 AM,60.1,55.9,86,29.90,10.0,NE,3.5,-,N/A,,Mostly Cloudy,50,2013-09-24 09:53:00
5:53 AM,59.0,55.0,87,29.91,9.0,NE,3.5,-,N/A,,Partly Cloudy,40,2013-09-24 10:53:00
6:53 AM,59.0,55.0,87,29.90,7.0,NNE,3.5,-,N/A,,Clear,30,2013-09-24 11:53:00
7:53 AM,62.1,57.0,84,29.88,8.0,NE,4.6,-,N/A,,Clear,40,2013-09-24 12:53:00
8:53 AM,64.0,60.1,87,29.88,9.0,ENE,3.5,-,N/A,,Mostly Cloudy,70,2013-09-24 13:53:00
9:53 AM,71.1,63.0,75,29.89,10.0,East,3.5,-,N/A,,Scattered Clouds,80,2013-09-24 14:53:00
10:53 AM,73.0,64.0,73,29.89,10.0,South,3.5,-,N/A,,Mostly Cloudy,180,2013-09-24 15:53:00
11:53 AM,75.9,66.0,71,29.88,10.0,SE,5.8,-,N/A,,Mostly Cloudy,130,2013-09-24 16:53:00
12:06 PM,77.0,66.2,69,29.89,10.0,SE,4.6,-,N/A,,Overcast,140,2013-09-24 17:06:00
12:53 PM,79.0,66.9,66,29.86,10.0,SSE,5.8,-,N/A,,Mostly Cloudy,160,2013-09-24 17:53:00
1:53 PM,81.0,66.9,62,29.83,10.0,South,8.1,-,N/A,,Partly Cloudy,170,2013-09-24 18:53:00
2:43 PM,78.8,66.2,65,29.83,10.0,East,9.2,-,N/A,,Mostly Cloudy,100,2013-09-24 19:43:00
2:53 PM,79.0,66.9,66,29.82,10.0,SE,9.2,-,N/A,,Mostly Cloudy,130,2013-09-24 19:53:00
3:02 PM,80.6,68.0,65,29.82,10.0,East,9.2,-,N/A,,Mostly Cloudy,100,2013-09-24 20:02:00
3:53 PM,80.1,68.0,67,29.80,10.0,ESE,6.9,-,N/A,,Mostly Cloudy,110,2013-09-24 20:53:00
4:00 PM,80.6,68.0,65,29.81,10.0,East,6.9,-,N/A,,Mostly Cloudy,90,2013-09-24 21:00:00
4:30 PM,78.8,68.0,69,29.80,10.0,ESE,8.1,-,N/A,,Mostly Cloudy,110,2013-09-24 21:30:00
4:53 PM,78.1,68.0,71,29.79,10.0,ESE,6.9,-,N/A,,Partly Cloudy,120,2013-09-24 21:53:00
5:53 PM,75.9,68.0,76,29.80,10.0,ESE,5.8,-,N/A,,Mostly Cloudy,110,2013-09-24 22:53:00
6:19 PM,75.2,68.0,78,29.81,10.0,East,4.6,-,N/A,,Mostly Cloudy,90,2013-09-24 23:19:00
6:31 PM,75.2,69.8,83,29.81,10.0,East,5.8,-,N/A,,Overcast,80,2013-09-24 23:31:00
6:53 PM,73.9,68.0,82,29.80,10.0,East,6.9,-,N/A,,Overcast,80,2013-09-24 23:53:00
7:09 PM,73.4,68.0,83,29.81,10.0,East,5.8,-,N/A,,Overcast,90,2013-09-25 00:09:00
7:43 PM,73.4,68.0,83,29.81,10.0,East,6.9,-,N/A,,Overcast,90,2013-09-25 00:43:00
7:53 PM,73.0,68.0,84,29.81,10.0,East,8.1,-,N/A,,Overcast,90,2013-09-25 00:53:00
8:53 PM,73.0,68.0,84,29.81,10.0,ESE,5.8,-,N/A,,Overcast,110,2013-09-25 01:53:00
9:53 PM,72.0,68.0,87,29.79,7.0,ESE,4.6,-,N/A,,Overcast,120,2013-09-25 02:53:00
10:53 PM,72.0,68.0,87,29.78,9.0,ESE,3.5,-,N/A,,Overcast,120,2013-09-25 03:53:00
11:53 PM,72.0,68.0,87,29.78,9.0,Calm,Calm,-,N/A,,Overcast,0,2013-09-25 04:53:00